EW4092 Weather Reports


Display with metric or nautical units.
time (UTC)temp
F
wind
direction
speed
MPH
gust
MPH
rain 1hr
in
rain 24hr
in
rain mn
in
humidity
%
barometer
mb
20260905180010 54 176 0.0 0.0 0.04 0.15 0.15 88 1019.4
20260905174508 54 176 0.0 1.0 0.03 0.14 0.14 87 1019.3
20260905173007 54 205 0.0 1.0 0.01 0.12 0.12 87 1019.3
20260905171506 54 100 0.0 0.0 0.01 0.12 0.12 85 1019.3
20260905170006 54 100 0.0 2.0 0.00 0.11 0.11 85 1019.0
20260905164503 53 111 0.0 4.0 0.00 0.11 0.11 86 1019.0
20260905163002 53 134 0.0 4.0 0.00 0.11 0.11 86 1018.9
20260905161501 52 111 0.0 3.0 0.00 0.11 0.11 89 1018.8
20260905160134 52 110 0.0 2.0 0.00 0.11 0.11 91 1018.7
20260905154603 51 69 0.0 2.0 0.01 0.11 0.11 91 1018.6
20260905153058 51 69 0.0 1.0 0.05 0.11 0.11 92 1018.7
20260905151603 51 69 0.0 2.0 0.07 0.11 0.11 91 1018.8
20260905150055 50 94 1.0 5.0 0.07 0.11 0.11 90 1018.7
20260905144553 51 38 2.0 6.0 0.07 0.11 0.10 90 1018.6
20260905143153 51 123 3.0 5.0 0.03 0.07 0.06 89 1018.5
20260905141549 51 110 2.0 4.0 0.02 0.05 0.04 88 1018.6
20260905140047 51 103 0.0 3.0 0.03 0.05 0.04 88 1018.3
20260905134544 51 121 0.0 3.0 0.02 0.04 0.03 86 1018.1
20260905133043 51 115 0.0 1.0 0.02 0.04 0.03 86 1017.8
20260905131541 52 111 1.0 3.0 0.01 0.03 0.02 84 1017.9
20260905130040 52 80 2.0 5.0 0.00 0.02 0.01 83 1017.8
20260905124640 52 97 2.0 6.0 0.00 0.02 0.01 83 1017.4
20260905123037 52 102 0.0 1.0 0.00 0.02 0.01 84 1017.5
20260905121536 52 84 0.0 0.0 0.00 0.02 0.01 85 1017.6
20260905120035 52 127 0.0 2.0 0.00 0.02 0.01 84 1017.4
20260905114534 51 77 0.0 1.0 0.00 0.02 0.01 86 1017.4
20260905113032 51 77 0.0 1.0 0.01 0.02 0.01 87 1017.4
20260905111532 51 77 0.0 0.0 0.01 0.02 0.01 86 1017.2
20260905110129 51 77 0.0 1.0 0.01 0.02 0.01 86 1017.2
20260905104526 52 69 0.0 2.0 0.01 0.02 0.01 84 1017.1
20260905103027 52 89 0.0 1.0 0.00 0.01 0.00 80 1017.1
20260905101523 53 64 0.0 1.0 0.00 0.01 0.00 79 1017.1
20260905100022 53 110 0.0 1.0 0.00 0.01 0.00 79 1017.0
20260905094527 53 90 0.0 1.0 0.00 0.01 0.00 79 1017.1
20260905093020 53 110 0.0 1.0 0.00 0.01 0.00 79 1017.0
20260905091625 53 110 0.0 1.0 0.00 0.01 0.00 79 1017.1
20260905090018 53 82 0.0 1.0 0.00 0.01 0.00 79 1017.0
20260905084515 53 84 0.0 1.0 0.00 0.01 0.00 79 1016.9
20260905083012 54 109 0.0 0.0 0.00 0.01 0.00 77 1016.8
20260905081511 54 109 0.0 1.0 0.00 0.01 0.00 77 1016.7
20260905080009 54 99 0.0 1.0 0.00 0.01 0.00 76 1016.6
20260905074511 55 100 0.0 1.0 0.00 0.01 0.00 76 1016.5
20260905073104 55 111 0.0 1.0 0.00 0.01 0.00 76 1016.3
20260905071503 55 133 0.0 1.0 0.00 0.01 0.00 76 1016.1
20260905070002 55 184 0.0 1.0 0.00 0.01 0.00 76 1016.1
20260905064559 54 86 0.0 0.0 0.00 0.01 0.01 76 1016.0
20260905063100 56 109 0.0 1.0 0.00 0.01 0.01 72 1015.9
20260905061621 55 112 0.0 1.0 0.00 0.01 0.01 75 1015.8
20260905060109 54 105 0.0 1.0 0.00 0.01 0.01 76 1015.9
20260905054556 54 105 0.0 1.0 0.00 0.02 0.01 74 1015.9
20260905053056 54 105 0.0 1.0 0.00 0.02 0.01 74 1015.8
20260905051555 54 110 0.0 1.0 0.00 0.02 0.01 76 1015.7
20260905050055 54 108 0.0 0.0 0.00 0.02 0.01 75 1015.7
20260905044554 55 109 0.0 0.0 0.00 0.08 0.01 73 1015.7
20260905043053 55 109 0.0 1.0 0.00 0.08 0.01 71 1015.6
20260905041600 56 110 0.0 0.0 0.00 0.08 0.01 68 1015.8
20260905040052 57 110 0.0 1.0 0.00 0.08 0.01 65 1015.7
20260905034602 58 110 0.0 0.0 0.00 0.32 0.01 64 1015.6
20260905033051 59 110 0.0 1.0 0.00 0.32 0.01 60 1015.6
20260905031550 60 109 0.0 6.0 0.00 0.32 0.01 59 1015.3
20260905030047 60 94 3.0 10.0 0.00 0.32 0.01 56 1015.2
20260905024546 61 111 2.0 8.0 0.00 0.32 0.01 56 1015.3
20260905023046 61 122 3.0 12.0 0.00 0.32 0.01 56 1015.3
20260905021551 62 77 0.0 3.0 0.00 0.32 0.01 56 1015.2
20260905020043 62 225 0.0 4.0 0.00 0.32 0.01 55 1015.1
20260905014541 63 202 1.0 4.0 0.00 0.32 0.01 52 1015.1
20260905013040 64 331 1.0 4.0 0.00 0.32 0.01 54 1015.0
20260905011543 65 49 1.0 5.0 0.00 0.32 0.01 52 1014.5
20260905010036 65 74 2.0 4.0 0.00 0.32 0.01 46 1014.5
20260905004543 66 111 2.0 6.0 0.00 0.32 0.01 47 1014.4
20260905003034 66 79 1.0 7.0 0.00 0.32 0.01 47 1014.1
20260905001547 66 103 4.0 9.0 0.00 0.32 0.01 44 1014.0
20260905000032 67 104 4.0 10.0 0.00 0.32 0.01 46 1014.1
20260904234537 66 85 6.0 9.0 0.00 0.32 0.01 48 1013.9
20260904233040 65 94 4.0 11.0 0.00 0.32 0.01 50 1013.9
20260904231538 65 90 5.0 13.0 0.00 0.32 0.01 50 1014.0
20260904230029 64 95 5.0 11.0 0.00 0.32 0.01 54 1013.9
20260904224627 64 73 6.0 10.0 0.00 0.32 0.01 53 1014.0
20260904223026 65 105 5.0 7.0 0.00 0.32 0.01 53 1013.9
20260904221526 65 96 3.0 7.0 0.00 0.32 0.01 52 1013.9
20260904220026 66 75 4.0 10.0 0.00 0.32 0.01 48 1013.9
20260904214523 67 298 1.0 5.0 0.00 0.32 0.01 46 1013.9
20260904213025 67 327 2.0 10.0 0.00 0.32 0.01 45 1013.7
20260904211521 68 308 1.0 5.0 0.00 0.32 0.01 47 1013.6
20260904210020 68 335 1.0 14.0 0.00 0.32 0.01 43 1013.4
20260904204517 69 335 2.0 8.0 0.00 0.32 0.01 43 1013.3
20260904203014 69 345 4.0 7.0 0.00 0.32 0.01 44 1013.1
20260904201512 68 57 4.0 7.0 0.00 0.32 0.01 46 1013.2
20260904200011 68 39 1.0 8.0 0.00 0.32 0.01 46 1013.3
20260904194508 67 32 3.0 8.0 0.00 0.32 0.01 46 1013.5
20260904193006 66 297 1.0 6.0 0.00 0.32 0.01 49 1013.5
20260904191503 66 239 3.0 6.0 0.00 0.32 0.01 49 1013.5
20260904190106 65 256 3.0 8.0 0.00 0.32 0.01 50 1013.5
20260904184559 64 257 2.0 5.0 0.00 0.32 0.01 52 1013.6
20260904183059 64 281 3.0 4.0 0.00 0.32 0.01 50 1013.6
20260904181555 63 124 0.0 3.0 0.00 0.32 0.01 51 1013.5